Volver al catálogo

COSMOS 397

ActivoMilitarUNKNOWN
NORAD 4964·PAYLOAD·🇷🇺 Russia

Lanzado Feb 25, 1971 desde Baikonur Cosmodrome

Loading…

Próximos Pases (próximas 24 horas)

TLE

ActualizadoSource: Space-Track

Época: Sep 14, 2026, 12:46 UTC

1 04964U 71015A   26257.53228094 -.00000006  00000-0  33977-4 0  9992
2 04964  65.7212 284.6596 1028586 200.4563 155.2253 12.74971312679640

Sigue COSMOS 397 en tiempo real con AllMySat

Download on the App Store